FW8420 Weather Reports


time (UTC)temp
F
wind
direction
speed
knots
gust
knots
rain 1hr
in
rain 24hr
in
rain mn
in
humidity
%
barometer
mb
20260508113603 56 288 3.5 8.7 0.00 0.07 0.00 66 1014.9
20260508111803 56 258 3.5 7.8 0.00 0.07 0.00 67 1014.9
20260508110904 56 280 3.5 7.8 0.00 0.07 0.00 68 1014.9
20260508110003 56 279 3.5 7.8 0.00 0.07 0.00 69 1014.8
20260508105404 56 277 3.5 7.8 0.00 0.07 0.00 68 1014.7
20260508104717 55 278 3.5 7.8 0.00 0.07 0.00 69 1014.7
20260508103603 53 285 4.3 7.8 0.00 0.07 0.00 70 1014.7
20260508102703 53 272 4.3 7.8 0.00 0.07 0.00 70 1014.8
20260508101803 53 285 4.3 7.8 0.00 0.07 0.00 70 1014.6
20260508100903 54 273 4.3 7.8 0.00 0.07 0.00 70 1014.6
20260508100003 54 272 3.5 8.7 0.00 0.07 0.00 72 1014.6
20260508095403 54 270 3.5 8.7 0.00 0.07 0.00 72 1014.5
20260508094504 53 270 3.5 8.7 0.00 0.07 0.00 72 1014.6
20260508093603 53 257 3.5 7.8 0.00 0.07 0.00 72 1014.5
20260508092703 53 262 3.5 9.6 0.00 0.07 0.00 73 1014.4
20260508091803 53 267 3.5 7.0 0.00 0.07 0.00 74 1014.2
20260508091118 53 275 2.6 6.1 0.00 0.07 0.00 75 1014.2
20260508090004 53 282 3.5 7.0 0.00 0.07 0.00 75 1014.2
20260508085404 53 279 2.6 7.8 0.00 0.07 0.00 76 1014.0
20260508084503 53 286 2.6 6.1 0.00 0.07 0.00 76 1014.2
20260508083818 52 266 2.6 6.1 0.00 0.07 0.00 77 1014.1
20260508082703 52 282 2.6 5.2 0.00 0.07 0.00 78 1014.2
20260508081804 51 282 2.6 6.1 0.00 0.07 0.00 78 1013.9
20260508080903 51 269 2.6 7.0 0.00 0.07 0.00 80 1013.8
20260508080003 50 276 2.6 7.0 0.00 0.07 0.00 81 1013.8
20260508075404 50 289 2.6 6.1 0.00 0.07 0.00 81 1013.7
20260508074503 50 288 2.6 6.1 0.00 0.07 0.00 82 1013.7
20260508073604 50 301 2.6 5.2 0.00 0.07 0.00 83 1013.6
20260508072704 49 284 2.6 5.2 0.00 0.07 0.00 84 1013.5
20260508072018 49 286 1.7 5.2 0.00 0.07 0.00 84 1013.4
20260508070904 49 293 1.7 5.2 0.00 0.07 0.00 85 1013.1
20260508070218 49 286 1.7 5.2 0.00 0.07 0.00 85 1013.3
20260508065404 48 295 1.7 3.5 0.00 0.07 0.00 86 1013.2
20260508064504 48 291 1.7 3.5 0.00 0.07 0.00 86 1013.1
20260508063604 48 276 1.7 3.5 0.00 0.07 0.00 87 1012.8
20260508062704 48 289 1.7 3.5 0.00 0.11 0.00 87 1012.8
20260508061804 47 293 1.7 3.5 0.00 0.13 0.00 87 1012.7
20260508060904 47 293 1.7 6.1 0.00 0.13 0.00 88 1012.7
20260508060004 47 301 2.6 6.1 0.00 0.13 0.00 88 1012.4
20260508055404 47 300 1.7 5.2 0.00 0.13 0.00 88 1012.5
20260508054503 47 292 0.9 3.5 0.00 0.13 0.00 88 1012.5
20260508053604 46 294 1.7 3.5 0.00 0.13 0.00 88 1012.2
20260508052704 46 276 1.7 3.5 0.00 0.13 0.00 88 1012.5
20260508051803 46 290 1.7 3.5 0.00 0.13 0.00 89 1012.2
20260508051118 46 279 0.9 3.5 0.00 0.13 0.00 89 1012.2
20260508050003 46 283 0.9 3.5 0.00 0.15 0.00 89 1012.1
20260508045403 46 289 0.9 2.6 0.00 0.16 0.00 89 1012.2
20260508044717 46 302 0.9 2.6 0.00 0.18 0.00 89 1012.2
20260508043818 47 286 0.9 2.6 0.00 0.19 0.00 88 1012.0
20260508042704 47 272 1.7 3.5 0.00 0.19 0.00 88 1011.9
20260508041804 47 275 1.7 3.5 0.00 0.19 0.00 88 1012.0
20260508040903 47 263 1.7 3.5 0.00 0.19 0.00 89 1012.0
20260508040003 47 261 1.7 3.5 0.00 0.19 0.00 89 1012.0
20260508035404 47 267 0.9 3.5 0.00 0.19 0.00 89 1011.8
20260508034718 47 263 0.9 3.5 0.00 0.19 0.00 89 1011.8
20260508033818 47 254 1.7 5.2 0.00 0.19 0.00 89 1011.5
20260508032703 47 238 1.7 3.5 0.00 0.21 0.00 89 1011.7
20260508031803 47 210 0.9 3.5 0.00 0.23 0.00 89 1011.9
20260508030903 47 207 1.7 3.5 0.00 0.23 0.00 90 1011.9
20260508030003 47 198 0.9 2.6 0.00 0.24 0.00 90 1011.7
20260508025403 47 201 0.9 2.6 0.00 0.25 0.00 90 1011.8
20260508024503 47 186 0.9 1.7 0.00 0.26 0.00 90 1011.7
20260508023603 47 193 0.9 1.7 0.00 0.26 0.00 90 1011.8
20260508022703 47 200 0.9 2.6 0.00 0.26 0.00 90 1011.7
20260508021804 47 196 0.9 2.6 0.00 0.26 0.00 90 1011.6
20260508020903 47 203 0.9 2.6 0.00 0.26 0.00 90 1011.6
20260508020003 47 203 0.9 2.6 0.00 0.26 0.00 90 1011.4
20260508015403 47 200 0.9 2.6 0.00 0.26 0.00 90 1011.3
20260508014504 47 204 0.9 3.5 0.00 0.26 0.00 90 1011.2
20260508013603 47 189 0.9 1.7 0.00 0.26 0.00 90 1011.4
20260508012703 47 194 0.9 3.5 0.00 0.26 0.00 90 1011.3
20260508011803 47 190 0.9 2.6 0.00 0.26 0.00 90 1011.3
20260508010903 47 194 0.9 2.6 0.00 0.26 0.00 90 1011.3
20260508010003 47 186 0.0 1.7 0.00 0.26 0.00 91 1011.4
20260508005404 47 186 0.9 1.7 0.00 0.26 0.00 91 1011.5
20260508004503 47 174 0.0 1.7 0.00 0.26 0.00 91 1011.5
20260508003603 47 187 0.9 1.7 0.00 0.26 0.00 91 1011.5
20260508002703 47 191 0.9 3.5 0.00 0.26 0.00 91 1011.3
20260508002017 47 139 0.0 0.9 0.00 0.26 0.00 91 1011.3
20260508000903 46 114 0.0 0.9 0.00 0.26 0.00 91 1011.3
20260508000003 47 112 0.0 0.9 0.00 0.26 0.00 91 1011.3
20260507235403 47 111 0.0 0.9 0.00 0.26 0.00 91 1011.3
20260507234503 47 107 0.0 0.9 0.00 0.26 0.00 92 1011.0
20260507233604 47 0 0.0 0.9 0.00 0.26 0.00 92 1011.2
20260507232703 47 0 0.0 0.9 0.00 0.26 0.00 92 1011.2
20260507231803 47 0 0.0 0.9 0.00 0.26 0.00 92 1011.2
20260507230903 47 106 0.0 0.9 0.00 0.26 0.00 92 1011.1
20260507230005 47 106 0.0 0.9 0.00 0.26 0.00 92 1011.1
20260507225403 47 0 0.0 0.0 0.00 0.26 0.26 92 1011.1
20260507224504 47 0 0.0 0.9 0.00 0.26 0.26 92 1010.9
20260507223603 47 0 0.0 0.9 0.00 0.26 0.26 92 1011.0
20260507222703 47 0 0.0 0.9 0.00 0.26 0.26 92 1010.9
20260507221803 47 0 0.0 0.9 0.00 0.26 0.26 92 1011.0
20260507220903 47 106 0.0 1.7 0.00 0.26 0.26 92 1010.8
20260507220217 47 106 0.0 1.7 0.00 0.26 0.26 92 1010.8
20260507215403 48 62 0.0 0.9 0.00 0.26 0.26 92 1010.9
20260507214503 48 62 0.0 0.9 0.00 0.26 0.26 92 1010.9
20260507213603 47 62 0.0 0.9 0.00 0.26 0.26 92 1010.8
20260507212703 48 62 0.0 0.9 0.00 0.26 0.26 92 1010.8
20260507211803 48 62 0.0 0.9 0.00 0.26 0.26 92 1010.8
20260507211117 48 0 0.0 0.9 0.00 0.26 0.26 92 1010.6
20260507210217 48 62 0.0 0.9 0.00 0.26 0.26 92 1010.5
20260507205403 48 62 0.0 0.9 0.00 0.26 0.26 92 1010.6
20260507204503 48 62 0.0 0.9 0.00 0.26 0.26 92 1010.3
20260507203603 48 28 0.0 0.9 0.00 0.26 0.26 92 1010.2
20260507202703 48 21 0.0 0.9 0.00 0.26 0.26 92 1010.0
20260507201803 49 18 0.0 0.9 0.00 0.26 0.26 91 1010.0
20260507200904 49 0 0.0 0.0 0.00 0.26 0.26 91 1010.0
20260507200004 49 0 0.0 0.0 0.00 0.26 0.26 91 1009.9
20260507195403 49 0 0.0 0.0 0.00 0.26 0.26 91 1010.0
20260507194503 49 0 0.0 0.0 0.00 0.26 0.26 91 1009.8
20260507193603 49 0 0.0 0.0 0.00 0.26 0.26 91 1009.9
20260507192703 49 0 0.0 0.0 0.00 0.26 0.26 91 1009.8
20260507191803 49 0 0.0 0.0 0.00 0.26 0.26 91 1009.8
20260507190903 49 0 0.0 0.0 0.01 0.26 0.26 91 1009.8
20260507190004 49 303 0.0 0.9 0.01 0.26 0.26 90 1009.8
20260507185403 49 280 0.0 0.9 0.01 0.26 0.26 90 1009.8
20260507184503 49 287 0.0 1.7 0.02 0.26 0.26 90 1009.6
20260507183603 49 293 0.9 1.7 0.03 0.26 0.26 90 1009.6
20260507182703 50 255 0.0 1.7 0.03 0.26 0.26 90 1009.6
20260507181804 50 213 0.0 1.7 0.03 0.26 0.26 90 1009.5
20260507181118 50 229 0.0 1.7 0.02 0.25 0.25 89 1009.5
20260507180003 50 109 0.0 1.7 0.02 0.25 0.25 89 1009.5
20260507175404 50 172 0.0 1.7 0.02 0.25 0.25 89 1009.7
20260507174503 50 191 0.0 1.7 0.02 0.24 0.24 88 1009.4
20260507173818 50 161 0.9 2.6 0.02 0.24 0.24 88 1009.3
20260507172919 51 163 0.9 2.6 0.01 0.23 0.23 87 1009.3
20260507171804 51 112 0.9 2.6 0.03 0.23 0.23 88 1009.4
20260507170903 51 98 0.9 3.5 0.03 0.23 0.23 88 1009.2
20260507170005 51 132 0.9 2.6 0.03 0.23 0.23 87 1009.2
20260507165403 51 89 0.9 5.2 0.03 0.23 0.23 87 1009.1
20260507164503 52 79 0.9 2.6 0.02 0.22 0.22 87 1009.0